Location: Northcutt
(34.7304°N, 84.4305°W)
Time: 08:03:39
(UTC+00:00)

Vanguard 3 - Pass Details

Date: 11 October 2022
Orbit: 509 x 3255 km, 33.3° (Epoch: 09 December)

Event Time Altitude Azimuth Distance (km) Brightness Sun altitude
Exits shadow 10:10:17 14° 203° (SSW) 1,899 8.8 -19.3°
Maximum altitude 10:13:03 22° 160° (SSE) 1,311 8.4 -18.7°
Drops below altitude 10° 10:16:07 10° 107° (ESE) 1,773 10.0 -18.1°
Sets 10:18:28 0° 90° (E) 2,605 11.5 -17.6°
